Hourly Data Report for November 26, 2014

All times are specified in Local Standard Time (LST). Add 1 hour to adjust for Daylight Saving Time where and when it is observed.

Metadata including Station Name, Province, Latitude, Longitude, Elevation, Climate ID, WMO ID, TC ID
PUVIRNITUQ A
QUEBEC
Latitude: 60°03'00.000" N Longitude: 77°17'00.000" W Elevation: 25.30 m
Climate ID: 7106222 WMO ID: TC ID: YPX
Hourly Data Report for November 25, 2014
Temp Definition
°C

Dew Point Temp Definition
°C

Rel Hum Definition
%

Wind Dir Definition
10's deg
Wind Spd Definition
km/h

Visibility Definition
km

Stn Press Definition
kPa

Hmdx Definition

Wind Chill Definition

Weather Definition

00:00 -23.4 -25.9 80 7 17 25.0 99.95 -34 Mainly Clear
01:00 -24.2 -30.3 57 8 11 25.0 99.93 -33 Clear
02:00 -24.1 -30.2 57 8 13 25.0 99.91 -33 Clear
03:00 -24.8 -34.6 40 9 11 25.0 99.92 -33 Clear
04:00 -25.2 -30.3 62 6 7 25.0 99.90 -32 Clear
05:00
06:00
07:00
08:00 -25.0 -30.1 62 7 7 25.0 99.94 -31 Mainly Clear
09:00 -25.8 -31.1 61   0 25.0 99.94 Mainly Clear
10:00 -26.2 -31.7 60 6 9 25.0 99.93 -34 Mainly Clear
11:00 -25.6 -30.9 61   0 25.0 99.94 Mainly Clear
12:00 -25.1 -28.9 71 7 15 25.0 99.97 -35 Mainly Clear
13:00 -24.5 -28.2 71 7 15 25.0 99.99 -35 Mostly Cloudy
14:00 -24.7 -28.5 71 9 7 25.0 100.01 -31 Mostly Cloudy
15:00 -25.2 -29.1 70 6 9 25.0 100.04 -33 Mainly Clear
16:00 -26.0 -30.0 69 8 11 25.0 100.07 -35 Mostly Cloudy
17:00 -24.3 -29.2 64 8 9 25.0 100.07 -32 Mostly Cloudy
18:00 -22.1 -26.4 68 7 15 25.0 100.06 -32 Cloudy
19:00 -21.2 -25.3 69 5 15 25.0 100.03 -31 Cloudy
20:00 -21.2 -24.4 75 9 17 25.0 100.00 -31 Cloudy
21:00 -19.2 -24.5 63 12 19 25.0 99.96 -29 Cloudy
22:00 -18.4 -22.6 70 12 13 25.0 99.94 -26 Cloudy
23:00 -17.6 -21.6 71 13 17 25.0 99.90 -27 Cloudy

Notes on Data Quality.

Legend
  • E = Estimated
  • M = Missing
  • NA = Not Available
  • ‡ = Partner data that is not subject to review by the National Climate Archives